Weather History for Colby, KS

Change the Weather History Date:

Monday, July 29, 2013

  Actual Average (KGLD) Record (KGLD)
Temperature  
Mean Temperature 68 °F 76 °F  
Max Temperature 75 °F 90 °F 104 °F (1943)
Min Temperature 62 °F 62 °F 48 °F (1971)
Degree Days  
Heating Degree Days 0 0  
Month to date heating degree days 0  
Since 1 June heating degree days 37  
Since 1 July heating degree days 0  
Cooling Degree Days 4 11  
Month to date cooling degree days 312  
Year to date cooling degree days 532  
Since 1 June cooling degree days 491  
Growing Degree Days 18 (Base 50)    
Moisture  
Dew Point 65 °F    
Average Humidity 93    
Maximum Humidity 100    
Minimum Humidity 78    
Precipitation  
Precipitation 0.00 in 0.12 in 2.14 in (1936)
Month to date precipitation 3.25  
Year to date precipitation 12.98  
Snow  
Snow 0.00 in 0.00 in - ()
Month to date snowfall 0.0  
Since 1 June snowfall 0.0  
Since 1 July snowfall 0.0  
Snow Depth -    
Sea Level Pressure  
Sea Level Pressure 30.02 in    
Wind  
Wind Speed 7 mph (East)    
Max Wind Speed 12 mph    
Max Gust Speed -    
Visibility 6 miles    
Events Fog , Rain    
T = Trace of Precipitation, MM = Missing Value Source: NWS Daily Summary

Daily Weather History Graph

Daily Weather History Graph

Search for Another Location

Airport:

Trip Planner

Search our weather history database for the weather conditions in past years. The results will help you decide how hot, cold, wet, or windy it might be!

Date:

Astronomy

Jul. 29, 2013 Rise Set
Actual Time 6:41 AM CDT 8:59 PM CDT
Civil Twilight 6:11 AM CDT 9:29 PM CDT
Nautical Twilight 5:34 AM CDT 10:06 PM CDT
Astronomical Twilight 4:52 AM CDT 10:47 PM CDT
Moon 12:25 AM CDT (7/29) 2:22 PM CDT (7/29)
Length of Visible Light 15h 18m
Length of Day
14h 17m
Waning Gibbous, 50% of the Moon is Illuminated
Jul 29
Waning Gibbous
Jul 29
Last Quarter
Aug 6
New
Aug 14
First Quarter
Aug 20
Full

Hourly Weather History & Observations

Time (CDT) Temp. Dew Point Humidity Pressure Visibility Wind Dir Wind Speed Gust Speed Precip Events Conditions
12:15 AM 62.6 °F 62.6 °F 100% 30.02 in 0.5 mi ESE 10.4 mph - N/A Fog Fog
12:35 AM 62.6 °F 62.6 °F 100% 30.02 in 0.2 mi ESE 10.4 mph - N/A Fog Fog
12:55 AM 62.6 °F 62.6 °F 100% 30.01 in 1.2 mi SE 10.4 mph - N/A   Overcast
1:15 AM 62.6 °F 62.6 °F 100% 30.01 in 1.0 mi SE 9.2 mph - N/A   Overcast
1:35 AM 62.6 °F 62.6 °F 100% 30.01 in 1.0 mi SE 11.5 mph - N/A Rain Light Rain
1:55 AM 62.6 °F 62.6 °F 100% 30.01 in 1.0 mi SE 10.4 mph - N/A   Overcast
2:15 AM 62.6 °F 62.6 °F 100% 30.00 in 1.2 mi SE 10.4 mph - N/A   Overcast
2:55 AM 62.6 °F 62.6 °F 100% 29.99 in 0.5 mi SE 8.1 mph - N/A Fog Fog
3:15 AM 62.6 °F 62.6 °F 100% 29.99 in 0.5 mi SE 8.1 mph - N/A Fog Fog
3:35 AM 62.6 °F 62.6 °F 100% 29.99 in 0.5 mi ESE 8.1 mph - N/A Fog Fog
3:55 AM 62.6 °F 62.6 °F 100% 29.99 in 0.5 mi SE 8.1 mph - N/A Fog Fog
4:15 AM 62.6 °F 62.6 °F 100% 29.99 in 0.5 mi ESE 6.9 mph - N/A Fog Fog
4:55 AM 62.6 °F 62.6 °F 100% 29.99 in 0.2 mi East 3.5 mph - N/A Fog Fog
5:15 AM 62.6 °F 62.6 °F 100% 29.98 in 0.2 mi ESE 3.5 mph - N/A Fog Fog
5:35 AM 62.6 °F 62.6 °F 100% 29.98 in 0.2 mi East 3.5 mph - N/A Fog Fog
5:55 AM 62.6 °F 62.6 °F 100% 29.98 in 0.2 mi SE 6.9 mph - N/A Fog Fog
6:15 AM 62.6 °F 62.6 °F 100% 29.98 in 0.2 mi SE 5.8 mph - N/A Fog Fog
6:35 AM 62.6 °F 62.6 °F 100% 29.98 in 0.8 mi SSE 6.9 mph - N/A   Overcast
6:55 AM 62.6 °F 62.6 °F 100% 29.99 in 1.2 mi SE 4.6 mph - N/A   Overcast
7:15 AM 62.6 °F 62.6 °F 100% 29.99 in 0.5 mi SE 3.5 mph - N/A Fog Fog
7:35 AM 62.6 °F 62.6 °F 100% 29.99 in 1.0 mi ESE 3.5 mph - N/A   Overcast
7:55 AM 62.6 °F 62.6 °F 100% 30.00 in 0.8 mi Calm Calm - N/A   Overcast
8:15 AM 62.6 °F 62.6 °F 100% 30.00 in 0.5 mi Calm Calm - N/A Fog Fog
8:35 AM 62.6 °F 62.6 °F 100% 30.00 in 0.8 mi NE 3.5 mph - N/A   Overcast
8:55 AM 64.4 °F 64.4 °F 100% 30.01 in 1.8 mi ENE 3.5 mph - N/A   Overcast
9:15 AM 64.4 °F 64.4 °F 100% 30.01 in 3.0 mi East 3.5 mph - N/A   Overcast
9:35 AM 64.4 °F 64.4 °F 100% 30.00 in 5.0 mi Calm Calm - N/A   Overcast
9:55 AM 66.2 °F 64.4 °F 94% 30.00 in 7.0 mi East 4.6 mph - N/A   Overcast
10:15 AM 66.2 °F 64.4 °F 94% 30.00 in 7.0 mi Calm Calm - N/A   Overcast
10:35 AM 68.0 °F 66.2 °F 94% 30.00 in 7.0 mi SE 5.8 mph - N/A   Overcast
10:55 AM 68.0 °F 66.2 °F 94% 29.99 in 7.0 mi SE 6.9 mph - N/A   Overcast
11:15 AM 69.8 °F 66.2 °F 88% 29.99 in 10.0 mi SSE 8.1 mph - N/A   Overcast
11:35 AM 69.8 °F 66.2 °F 88% 29.99 in 10.0 mi SSE 10.4 mph - N/A   Overcast
11:55 AM 71.6 °F 68.0 °F 88% 29.98 in 10.0 mi SSE 10.4 mph - N/A   Mostly Cloudy
12:15 PM 71.6 °F 68.0 °F 88% 29.99 in 10.0 mi SSE 9.2 mph - N/A   Overcast
12:35 PM 69.8 °F 68.0 °F 94% 29.99 in 7.0 mi SE 5.8 mph - N/A   Overcast
12:55 PM 71.6 °F 66.2 °F 83% 29.99 in 10.0 mi SE 3.5 mph - N/A   Overcast
1:15 PM 71.6 °F 66.2 °F 83% 30.00 in 10.0 mi Calm Calm - N/A   Overcast
1:35 PM 73.4 °F 66.2 °F 78% 30.01 in 10.0 mi SSW 3.5 mph - N/A   Overcast
1:55 PM 73.4 °F 66.2 °F 78% 30.01 in 10.0 mi Calm Calm - N/A   Overcast
2:15 PM 73.4 °F 66.2 °F 78% 30.01 in 10.0 mi Calm Calm - N/A   Overcast
2:35 PM 73.4 °F 66.2 °F 78% 30.01 in 10.0 mi North 5.8 mph - N/A   Overcast
2:55 PM 73.4 °F 68.0 °F 83% 30.01 in 10.0 mi NNW 4.6 mph - N/A   Overcast
3:15 PM 73.4 °F 68.0 °F 83% 30.02 in 10.0 mi NNE 3.5 mph - N/A   Overcast
3:35 PM 73.4 °F 66.2 °F 78% 30.01 in 10.0 mi Calm Calm - N/A   Overcast
3:55 PM 73.4 °F 68.0 °F 83% 30.02 in 10.0 mi ENE 4.6 mph - N/A   Overcast
4:15 PM 73.4 °F 68.0 °F 83% 30.02 in 10.0 mi NE 5.8 mph - N/A   Overcast
4:35 PM 75.2 °F 68.0 °F 78% 30.01 in 10.0 mi NE 6.9 mph - N/A   Overcast
4:55 PM 75.2 °F 68.0 °F 78% 30.01 in 10.0 mi ENE 6.9 mph - N/A   Overcast
5:15 PM 75.2 °F 68.0 °F 78% 30.01 in 10.0 mi NE 5.8 mph - N/A   Overcast
5:35 PM 75.2 °F 68.0 °F 78% 30.01 in 10.0 mi NNE 6.9 mph - N/A   Overcast
5:55 PM 75.2 °F 68.0 °F 78% 30.01 in 10.0 mi NE 9.2 mph - N/A   Overcast
6:15 PM 73.4 °F 68.0 °F 83% 30.01 in 10.0 mi NE 9.2 mph - N/A   Overcast
6:35 PM 73.4 °F 68.0 °F 83% 30.01 in 10.0 mi NNE 6.9 mph - N/A   Overcast
6:55 PM 73.4 °F 68.0 °F 83% 30.00 in 10.0 mi NE 6.9 mph - N/A   Scattered Clouds
7:15 PM 73.4 °F 68.0 °F 83% 30.00 in 10.0 mi NE 9.2 mph - N/A   Clear
7:35 PM 73.4 °F 68.0 °F 83% 30.02 in 10.0 mi NE 10.4 mph - N/A   Clear
7:55 PM 71.6 °F 68.0 °F 88% 30.03 in 10.0 mi ENE 10.4 mph - N/A   Clear
8:15 PM 71.6 °F 68.0 °F 88% 30.05 in 10.0 mi ENE 10.4 mph - N/A   Clear
8:35 PM 69.8 °F 68.0 °F 94% 30.07 in 10.0 mi ENE 8.1 mph - N/A   Clear
8:55 PM 69.8 °F 68.0 °F 94% 30.09 in 7.0 mi ENE 5.8 mph - N/A   Clear
9:15 PM 68.0 °F 68.0 °F 100% 30.09 in 7.0 mi NE 6.9 mph - N/A   Clear
9:35 PM 68.0 °F 68.0 °F 100% 30.09 in 7.0 mi NNE 6.9 mph - N/A   Mostly Cloudy
9:55 PM 68.0 °F 68.0 °F 100% 30.08 in 7.0 mi NE 9.2 mph - N/A   Mostly Cloudy
10:15 PM 66.2 °F 66.2 °F 100% 30.08 in 7.0 mi ENE 6.9 mph - N/A   Clear
10:35 PM 66.2 °F 66.2 °F 100% 30.08 in 5.0 mi NE 6.9 mph - N/A   Clear
10:55 PM 64.4 °F 64.4 °F 100% 30.09 in 4.0 mi NE 5.8 mph - N/A   Clear
11:15 PM 64.4 °F 64.4 °F 100% 30.09 in 4.0 mi East 4.6 mph - N/A   Clear
11:35 PM 64.4 °F 64.4 °F 100% 30.10 in 3.0 mi Calm Calm - N/A   Clear
11:55 PM 62.6 °F 62.6 °F 100% 30.10 in 1.5 mi Calm Calm - N/A   Mostly Cloudy